TimeEET,TemperatureF,Dew PointF,Humidity,Sea Level PressureIn,VisibilityMPH,Wind Direction,Wind SpeedMPH,Gust SpeedMPH,PrecipitationIn,Events,Conditions,WindDirDegrees,DateUTC
12:00 AM,69.8,33.8,27,30.01,-9999.0,NNW,4.6,-,N/A,,Clear,340,2012-11-18 22:00:00
1:00 AM,66.2,33.8,30,30.01,-9999.0,NNE,3.5,-,N/A,,Clear,20,2012-11-18 23:00:00
2:00 AM,65,34,20,29.99,6,North,4.6,,,,,350,2012-11-19 00:00:00
2:00 AM,64.4,33.8,32,29.98,-9999.0,North,4.6,-,N/A,,Clear,350,2012-11-19 00:00:00
3:00 AM,64.4,33.8,32,29.98,-9999.0,North,5.8,-,N/A,,Clear,350,2012-11-19 01:00:00
4:00 AM,64.4,35.6,34,29.98,-9999.0,North,4.6,-,N/A,,Clear,350,2012-11-19 02:00:00
5:00 AM,62.6,35.6,37,29.98,-9999.0,North,4.6,-,N/A,,Clear,10,2012-11-19 03:00:00
6:00 AM,62.6,37.4,39,30.01,-9999.0,North,6.9,-,N/A,,Clear,360,2012-11-19 04:00:00
7:00 AM,64.4,39.2,40,30.04,-9999.0,North,5.8,-,N/A,,Clear,360,2012-11-19 05:00:00
8:00 AM,67,41,27,30.04,6,North,4.6,,,,,0,2012-11-19 06:00:00
8:00 AM,66.2,41.0,40,30.04,-9999.0,North,4.6,-,N/A,,Clear,360,2012-11-19 06:00:00
9:00 AM,69.8,41.0,35,30.06,-9999.0,North,9.2,-,N/A,,Clear,360,2012-11-19 07:00:00
10:00 AM,75.2,41.0,29,30.06,-9999.0,North,6.9,-,N/A,,Clear,360,2012-11-19 08:00:00
11:00 AM,77.0,39.2,26,30.01,-9999.0,North,5.8,-,N/A,,Clear,360,2012-11-19 09:00:00
12:00 PM,80.6,41.0,24,30.01,-9999.0,North,11.5,-,N/A,,Clear,10,2012-11-19 10:00:00
1:00 PM,82.4,41.0,23,29.98,-9999.0,North,8.1,-,N/A,,Clear,360,2012-11-19 11:00:00
2:00 PM,82.4,39.2,21,29.95,-9999.0,North,6.9,-,N/A,,Clear,360,2012-11-19 12:00:00
3:00 PM,82.4,39.2,21,29.95,-9999.0,North,8.1,-,N/A,,Clear,10,2012-11-19 13:00:00
4:00 PM,82.4,39.2,21,29.95,-9999.0,NNE,5.8,-,N/A,,Clear,30,2012-11-19 14:00:00
5:00 PM,80.6,39.2,23,29.98,-9999.0,NNE,5.8,-,N/A,,Clear,20,2012-11-19 15:00:00
6:00 PM,77.0,39.2,26,29.98,-9999.0,Calm,Calm,-,N/A,,Clear,0,2012-11-19 16:00:00
7:00 PM,75.2,39.2,27,30.01,-9999.0,NNE,4.6,-,N/A,,Clear,20,2012-11-19 17:00:00
8:00 PM,73,38,18,30.00,6,NNE,5.8,,,,,30,2012-11-19 18:00:00
8:00 PM,73.4,39.2,29,30.01,-9999.0,NNE,5.8,-,N/A,,Clear,30,2012-11-19 18:00:00
9:00 PM,71.6,39.2,31,30.01,-9999.0,North,6.9,-,N/A,,Clear,360,2012-11-19 19:00:00
10:00 PM,69.8,39.2,33,30.01,-9999.0,North,8.1,-,N/A,,Clear,360,2012-11-19 20:00:00
11:00 PM,68.0,37.4,33,30.01,-9999.0,North,5.8,-,N/A,,Clear,350,2012-11-19 21:00:00